STARLINK-32475, 61728

Orbit data source: Space-Track

STARLINK-32475, 61728 is a payload satellite owned by SpaceX/Seattle (US) in LEO that was launched on Wed, 30 Oct 2024 UTC via an FALCON 9 launch vehicle from the Air Force Eastern Test Range (AFETR). Payload-class satellites include a variety of spacecraft equipped with specific instruments for various scientific and technological missions. These include communications satellites like Starlink; space stations such as the ISS; scientific satellites like the Hubble; Earth observation satellites from companies like Planet Labs, Umbra, and HawkEye 360; GPS; miniature CubeSats for education and research; and military/defense satellites.

Loading next visibility...
Identifier
61728, 2024-196X
Orbit
LEO
Country
Flag of USUS
Related business
Manufacturer
SpaceX/Seattle
Mission
Operational Commercial Communications
Bus & Motor
STARLINK V2M, Unknown motor
Mass
730 kg wet, ~700 kg dry
Launch date (UTC)
2024-10-30 (2 years ago)
Launch vehicle
FALCON 9
Launch site
Air Force Eastern Test Range (AFETR)
Object type
Payload
Rocket body
Debris
Shape & HBR
Box + 2 Pan, 17.7 m
Radar Cross Section
33.884 m², Large (>1 m²)

Expand to show TLE details & history
Last TLE update: 11 hours ago

TLE from 11 hours ago
0 STARLINK-32475
1 61728U 24196X   26257.84235799 -.00001971  00000-0 -47269-4 0  9997
2 61728  53.1597 300.1224 0000928  95.6726 264.4383 15.34376857106154
Epoch: 2026-09-14T20:12Z
TLE epoch observation values (Epoch: 2026-09-14T20:12:59.730Z)
Latitude
0.00003°
Longitude
3.0567°
Altitude
463.735 km
Speed
7.636 km/s
True Right ascension
20h 00m 29s
True Declination
0° 00' 00"
Sunlit
Object was in full shadow at epoch
Visualization orbit readout
Latitude
Unknown
Longitude
Unknown
Altitude
Unknown
Speed
Unknown
Apparent Right ascension
Unknown
Apparent Declination
Unknown
Sunlit
N/A
Visualization observer readout
Local Sidereal Time
23:21:51
Azimuth
Unknown
Elevation
Unknown
Doppler factor
Unknown
Orbital elements
Apogee altitude
463.664 km
Perigee altitude
462.394 km
Semi-major axis
6,841.166 km
Eccentricity
0.00009
Inclination
53.1597°
RAAN
300.1224°
Arg. of periapsis
95.6726°
True anomaly
264.42772°
Mean anomaly
264.4383°
Eccentric anomaly
264.43301°
Mean motion
3.83573 °/min
Orbital period
93.85 mins
BSTAR
-0.000047269
Loading maneuver chart data...
Computing Atmospheric mass density...
Loading historical data...
Loading historical data...
Loading historical data...
Loading historical data...
Loading historical data...
Loading historical data...
Loading historical data...

Documentation

Showing up to 5 results
|